STARLINK-32582, 62033

Orbit data source: Space-Track

STARLINK-32582, 62033 is a payload satellite owned by SpaceX/Seattle (US) in LEO that was launched on Thu, 21 Nov 2024 UTC via an FALCON 9 launch vehicle from the Air Force Eastern Test Range (AFETR). Payload-class satellites include a variety of spacecraft equipped with specific instruments for various scientific and technological missions. These include communications satellites like Starlink; space stations such as the ISS; scientific satellites like the Hubble; Earth observation satellites from companies like Planet Labs, Umbra, and HawkEye 360; GPS; miniature CubeSats for education and research; and military/defense satellites.

Loading next visibility...
Identifier
62033, 2024-216B
Orbit
LEO
Last TLE update
14 hours ago
Origin
Manufacturer
SpaceX/Seattle
Mission
Operational Commercial Communications
Bus & Motor
STARLINK V2M, Unknown motor
Mass
730 kg wet, ~700 kg dry
Launch date (UTC)
2024-11-21 (6 months ago)
Launch vehicle
FALCON 9
Launch site
Air Force Eastern Test Range (AFETR)
Object type
Payload
Rocket body
Debris
Shape & HBR
Box + 2 Pan, 29 m
Radar Cross Section
36.964 m², Large (>1 m²)

Expand to show TLE details & history

TLE from 14 hours ago
0 STARLINK-32582
1 62033U 24216B   25128.65539843  .00001173  00000-0  52131-4 0  9998
2 62033  42.9975 186.0037 0001229 271.0572  89.0138 15.27578181 27143
Epoch: 2025-05-08T15:43Z
Definitive object data (Epoch: 2025-05-08T15:43:46.424Z)
Latitude
-0.00007°
Longitude
83.33742°
Altitude
482.815 km
Speed
7.626 km/s
True Right ascension
12h 24m 00s
True Declination
0° 00' 00"
Sunlit
Object was in full shadow at TLE epoch
Visualization TLE readout
Latitude
16.9141°
Longitude
98.91139°
Altitude
482.483 km
Speed
7.627 km/s
Apparent Right ascension
11h 41m 46s
Apparent Declination
-47° 04' 53"
Sunlit
Object is in full shadow
Visualization observer readout
Local Sidereal Time
14:06:30
Azimuth
203.732° SW
Elevation
-2.771°
Doppler factor
1
Orbital elements
Apogee altitude
485.844 km
Perigee altitude
484.157 km
Semi-major axis
6,863.137 km
Eccentricity
0.0001229
Inclination
42.9975°
RAAN
186.0037°
Arg. of periapsis
271.0572°
True anomaly
89.02788°
Mean anomaly
89.0138°
Eccentric anomaly
89.02084°
Mean motion
3.81733 °/min
BSTAR
0.000052131
Orbital period
94.31 mins
Loading maneuver chart data...
Loading SW <> Apogee altitude chart data...
Loading historical data...
Loading historical data...
Loading historical data...
Loading historical data...
Loading historical data...
Loading historical data...
Loading historical data...

STARLINK-32582 Visibility forecast

Observer location: undefined°, undefined°

Span
Click to sort rows by Start time (UTC) header in descending order
Start Az.
Max El. time (UTC)
Max El. Az.
Max El.
End time (UTC)
End Az.
6 mins2025-05-09 07:39:44.637Z232.232° WSW2025-05-09 07:41:44.637Z190.094° SSW40.078°2025-05-09 07:45:44.637Z75.667° E
6 mins2025-05-09 09:18:44.637Z280.307° WNW2025-05-09 09:20:44.637Z324.86° NNW38.046°2025-05-09 09:24:44.637Z72.257° E
6 mins2025-05-09 10:57:44.637Z292.592° NW2025-05-09 11:00:44.637Z45.78° ENE40.576°2025-05-09 11:03:44.637Z92.953° ESE
6 mins2025-05-09 12:36:44.637Z272.983° WNW2025-05-09 12:39:44.637Z185.805° SSW32.554°2025-05-09 12:42:44.637Z136.959° SSE
|